Starlink 31510

operational
NORAD ID: 59575 Int'l Des: 2024-076 Owner: SPXS Country: US Constellation: starlink
LEOCIRCULAR

Über Starlink 31510

Beschreibung wird geladen...

Live-Position

3D-Globus wird geladen...

Nächste Überflüge

Höhenverlauf

Altitude vs Time

uPlot chart will show altitude changes over time

Zweizeiliger Elementsatz

1 59575U 24076M 25260.03622850 -.00001548 00000-0 -46754-4 0 9991
2 59575 43.0013 266.3373 0001032 277.0021 83.0713 15.27562911 79983
Epoch: 17. Sept. 2025 • Age: 24 hours

Aktueller Status

Höhe 485.2 km
Geschwindigkeit 7.63 km/s
Subsatellitenpunkt 35.91°N, 55.89°W
Startdatum 23. Apr. 2024
Alter 1.4 years
Typ internet

Technische Details

Klassifizierung Payload
Masse 730.00 kg
Trockenmasse 700.00 kg
Gesamtmasse 730.00 kg
Länge 0.30 m
Durchmesser 4.10 m
Spannweite 29.00 m
Form Box + pan
Hersteller SPXS
Bus-Typ Starlink V2M
Phasenstatus In Orbit
Besitzer/Staat SPXS/US

Große Konstellationen

Loading constellations...